RH
69 61 63 70 74 75 71 67 64 63 64 67 70 72 71 70 69 69 70 72 78 85 91 91 89 84 76 72 71 74 78 79 75 71 69 66 66 71 77 84 91 95 94 91 85 75 64 56 56 61 71 83 87 87 81 72 64 57 51 46 43 40 36 35 34 32 30 28 25 25 27 26 22 20 20 22 25 24 23 24 25 27 27 28 28 29 30 31
72 68 68 70 71 72 70 67 64 63 66 70 73 73 72 72 73 73 74 78 83 89 91 91 91 87 80 77 78 79 79 76 72 70 68 69 76 83 88 93 97 98 92 80 68 59 58 64 74 84 90 92 85 76 67 57 51 46 41 36 32 28 25 22 20 18 15 13 12 12 13 12 10 9 9 10 11 10 10 10 10 11 11 11 12 12 13 13
71 71 72 70 71 73 71 69 66 67 71 74 75 75 75 75 76 78 79 82 85 87 89 92 92 87 80 77 76 75 74 73 73 74 77 81 87 90 95 99 96 87 72 60 58 64 76 87 94 95 90 80 68 58 51 44 38 32 25 20 16 13 11 10 10 10 10 11 11 12 14 14 13 13 13 13 14 14 14 14 13 14 14 14 15 15 15 16
69 70 72 72 76 77 72 70 71 74 77 79 79 78 78 77 77 78 80 83 86 88 89 90 86 80 76 74 74 73 75 79 81 83 86 89 92 96 97 89 75 64 61 68 81 91 96 96 90 80 67 56 47 40 34 26 19 15 11 10 11 12 15 17 19 22 23 25 27 28 31 34 33 33 32 32 33 33 33 33 33 33 33 33 33 33 33 33
66 66 69 72 77 78 75 76 79 82 82 82 81 79 78 74 74 76 80 83 83 83 83 82 79 77 76 76 79 81 84 88 87 88 91 94 93 88 79 69 67 73 84 95 98 96 88 77 64 52 42 34 26 19 15 12 12 15 17 21 26 30 35 39 41 43 45 46 47 48 49 52 52 51 50 49 49 49 49 49 48 48 48 48 48 47 47 47
65 64 65 69 73 77 78 81 86 86 84 82 80 77 74 72 74 77 77 77 77 79 81 81 81 82 84 87 90 90 91 91 90 90 90 85 77 72 74 81 91 98 100 95 86 74 61 48 36 27 20 15 13 14 18 23 29 34 38 42 46 49 52 53 54 55 55 54 54 54 54 54 55 56 56 54 52 52 53 53 53 53 52 51 51 51 51 51
65 65 65 68 74 79 82 86 91 89 85 83 81 78 75 74 74 73 73 76 81 86 88 90 92 94 96 95 94 91 93 94 90 84 78 74 78 87 96 101 100 95 84 71 58 44 32 22 16 13 14 18 25 32 39 44 48 51 52 53 54 54 54 54 53 53 52 50 49 49 50 51 52 53 54 53 51 50 51 52 53 54 54 54 54 53 52 52
64 64 66 70 76 81 84 89 93 91 88 87 87 86 80 75 75 76 80 86 91 96 99 102 102 101 99 95 94 97 96 90 81 78 83 91 99 102 100 92 82 70 55 41 28 19 14 13 16 23 31 39 44 49 52 53 53 53 52 51 50 49 48 47 46 44 43 42 42 41 41 43 44 45 45 45 44 45 46 46 47 48 49 50 51 51 50 50
61 64 67 71 75 79 82 88 94 94 92 93 95 90 82 80 83 86 90 94 97 101 105 105 101 99 100 99 97 96 88 82 85 93 100 101 97 90 81 68 54 39 26 17 13 15 20 28 36 42 46 49 49 49 48 47 46 44 43 41 39 38 36 36 35 34 33 34 35 36 37 39 41 41 41 42 42 44 44 44 44 44 45 46 47 48 48 49
59 63 65 70 74 79 84 90 94 94 94 97 95 90 87 89 91 93 95 98 102 103 101 100 100 102 103 96 90 89 88 93 101 101 96 89 80 68 53 37 24 16 13 17 23 31 39 44 46 46 47 45 43 41 38 38 37 34 33 32 31 31 31 31 33 34 35 37 37 38 40 40 41 41 40 40 40 40 40 40 40 40 40 40 41 42 43 44
59 62 66 71 75 79 83 88 89 91 94 96 96 95 96 96 96 97 99 101 103 101 100 101 103 101 93 87 90 98 100 99 96 88 79 68 52 35 22 15 15 19 26 34 41 44 45 45 44 42 39 37 34 33 32 31 31 30 32 33 34 35 35 36 36 36 35 34 33 32 31 31 30 29 28 28 27 27 26 26 26 26 27 27 27 28 28 29
59 64 69 72 74 78 83 86 88 92 96 98 99 101 100 98 99 101 101 101 101 101 103 103 99 92 89 94 101 101 95 88 79 67 52 34 21 14 16 22 30 37 42 44 44 42 40 38 35 33 30 29 29 30 31 33 34 35 36 35 34 33 31 29 27 25 23 21 20 19 19 19 21 21 20 20 20 20 20 20 21 20 21 21 21 21 21 21
60 65 70 74 78 83 87 89 93 98 100 100 100 101 100 100 101 101 101 101 101 103 103 98 95 94 98 101 96 87 78 67 51 34 20 14 17 24 33 40 43 44 42 39 37 33 31 29 28 28 29 32 33 35 35 35 33 31 28 26 23 21 19 18 17 16 17 17 17 17 18 19 21 23 22 22 22 22 22 22 22 22 21 21 21 21 21 22
62 68 73 80 87 91 94 98 103 103 101 100 100 101 101 100 100 101 101 102 102 101 99 98 100 99 96 89 78 65 50 33 21 15 17 25 33 39 42 42 40 38 34 31 28 27 28 29 32 34 35 36 34 32 28 25 22 19 18 16 16 16 17 18 19 19 20 20 19 20 20 19 20 21 21 20 19 19 19 19 19 19 18 18 18 18 18 19
66 74 81 89 95 98 102 106 107 103 100 101 101 100 100 100 101 102 102 102 101 100 100 100 97 88 78 64 48 32 20 15 19 26 33 39 40 40 37 34 31 29 27 28 29 32 34 34 34 32 29 26 22 19 17 16 16 17 17 18 19 20 21 21 22 21 21 20 19 18 18 18 18 19 19 18 18 18 18 18 17 16 16 16 16 15 15 15
73 82 89 94 98 102 105 107 105 102 100 100 100 101 102 102 102 102 102 102 101 100 96 88 76 62 46 31 19 15 19 27 34 39 40 38 35 32 29 27 28 29 31 34 34 33 31 27 23 20 18 16 16 17 18 19 20 21 22 22 22 22 22 22 22 22 21 22 22 20 20 21 22 25 25 24 24 23 23 22 21 20 19 19 18 17 16 16
76 83 89 95 102 105 105 102 101 100 101 102 102 102 101 101 101 102 102 99 94 87 74 58 41 27 17 15 20 29 35 39 39 37 34 31 29 28 28 30 32 34 33 30 27 23 19 17 16 17 18 19 21 21 22 22 23 23 23 23 22 22 22 23 24 26 27 30 32 29 29 29 30 32 33 32 30 29 29 27 24 23 22 21 20 19 18 18
76 85 94 102 105 104 102 102 103 102 101 100 99 99 100 101 100 97 90 81 69 54 37 23 16 16 22 30 36 38 38 36 33 30 28 28 29 31 33 33 31 27 23 19 18 17 17 18 20 22 23 23 24 23 23 23 23 23 24 25 26 28 30 31 31 33 35 39 41 40 38 37 36 36 37 37 35 34 32 29 26 25 24 23 22 21 21 20
84 93 101 105 105 104 103 101 99 96 94 95 97 99 97 93 86 75 61 45 31 20 15 17 24 32 36 37 36 34 32 30 29 29 31 32 33 33 30 25 21 18 17 18 19 20 22 23 23 24 24 25 25 26 27 27 28 29 30 32 33 36 39 40 40 40 40 42 45 43 41 42 40 37 38 39 37 37 34 31 29 28 27 26 25 25 25 24
83 89 94 97 97 95 93 90 90 91 94 95 92 87 79 67 54 38 24 16 16 20 27 33 36 36 34 31 30 29 28 29 31 33 34 31 28 23 20 18 18 19 20 22 23 23 24 25 25 26 28 29 30 31 32 33 35 35 36 38 38 39 42 43 42 41 41 41 43 42 39 41 42 37 40 43 44 44 41 37 35 33 30 29 28 28 27 26
76 81 84 86 87 87 88 90 92 92 88 80 69 56 43 30 20 16 17 23 29 33 35 34 32 30 28 28 27 29 31 33 33 30 26 22 19 18 19 21 22 23 24 25 26 26 27 28 29 30 31 32 32 34 35 36 37 37 37 38 38 38 39 41 40 39 40 39 41 42 40 43 46 42 42 48 51 50 47 45 44 40 36 33 31 29 27 25
78 81 85 87 89 90 89 86 80 70 58 44 32 22 17 16 20 26 30 32 32 30 29 28 28 27 27 29 31 33 33 29 25 21 19 18 19 21 22 23 24 25 26 28 29 30 30 31 32 32 33 34 35 35 36 36 36 36 36 36 37 37 37 40 41 40 41 40 41 41 41 44 47 46 47 51 54 54 51 52 51 46 41 36 31 27 24 23
84 86 87 85 81 75 67 56 44 32 22 16 15 18 23 28 30 30 28 27 25 25 26 27 28 30 32 34 33 30 24 20 18 18 19 21 23 24 25 27 29 30 30 31 31 31 32 32 33 34 34 35 35 35 35 35 35 35 36 36 37 38 37 37 39 41 43 44 44 41 39 41 44 47 53 57 58 54 51 50 46 41 36 32 27 24 22 20
78 73 66 58 49 39 29 21 15 14 16 21 25 28 29 27 25 23 23 24 25 26 29 31 33 35 34 30 25 21 19 18 19 21 24 27 28 30 31 31 32 32 32 32 31 31 31 32 32 33 33 33 34 34 35 36 36 36 36 36 36 36 37 36 36 38 41 46 48 44 40 40 41 44 49 53 53 50 47 44 39 35 31 28 25 22 20 19
46 38 30 23 17 13 13 15 19 23 26 27 26 24 23 22 22 22 24 27 29 32 34 34 33 29 25 21 19 19 20 22 25 28 31 33 33 33 32 32 31 31 30 29 29 29 29 29 29 30 31 31 32 33 34 35 35 34 33 34 34 34 35 37 37 36 38 43 47 44 38 38 40 42 44 44 42 41 40 36 31 28 24 22 20 18 16 15
16 13 11 12 14 18 22 25 26 25 23 22 21 21 21 22 24 26 30 32 33 33 31 28 25 21 19 18 20 23 26 29 32 35 35 34 32 31 30 29 28 27 26 26 26 26 27 27 27 27 28 29 30 30 31 32 32 32 32 32 34 35 35 37 36 35 36 40 45 46 40 35 35 41 42 37 32 30 27 24 21 18 16 15 14 13 13 13
12 15 19 23 24 25 24 22 21 20 20 20 20 22 24 27 30 32 32 31 29 26 23 21 19 18 19 22 26 30 33 36 36 34 32 31 30 29 28 27 26 25 24 24 25 25 26 26 26 26 27 27 28 29 30 31 31 31 31 32 34 35 36 36 35 37 39 43 52 55 47 36 30 34 35 27 23 20 18 16 14 13 12 12 11 11 11 11
23 25 25 23 21 20 19 19 19 19 19 21 23 27 30 32 31 29 27 25 22 20 18 18 19 22 26 31 34 36 37 36 33 32 30 29 28 27 26 25 24 24 23 24 24 24 25 26 27 27 29 29 29 30 30 30 31 31 31 32 34 36 38 39 39 40 42 47 57 57 48 37 30 31 30 22 17 15 13 12 11 11 10 10 10 9 9 9
23 21 20 19 19 19 18 18 19 20 23 27 30 31 29 27 25 23 21 19 17 18 20 23 26 31 35 37 37 36 34 32 31 31 30 28 26 24 23 23 23 23 23 23 24 25 26 28 29 29 30 31 32 32 31 31 32 31 32 34 37 38 39 39 38 38 37 43 53 51 42 36 31 29 25 19 16 14 13 12 10 10 9 9 9 8 9 9
19 19 19 18 18 17 18 20 23 27 30 30 29 26 24 23 21 19 17 17 19 22 26 30 33 36 37 36 35 33 32 30 29 27 25 24 23 22 21 21 22 23 25 27 29 31 31 31 33 34 34 35 37 37 35 34 34 34 33 33 35 36 37 37 36 36 34 37 47 46 39 41 44 38 26 18 15 15 15 14 12 11 10 10 10 9 10 9
18 18 17 17 18 21 24 26 29 30 29 26 23 21 20 19 17 17 19 22 26 29 32 35 37 37 35 34 33 31 29 27 26 24 23 23 22 22 24 25 26 28 30 32 33 35 35 35 36 39 39 38 39 39 38 36 35 35 33 30 29 31 34 36 35 35 34 36 44 43 37 44 49 39 25 16 15 16 15 13 13 12 11 10 10 9 8 7
16 17 17 20 24 26 28 29 28 26 23 21 19 18 17 17 18 22 26 29 31 34 37 37 37 36 34 33 31 29 28 26 25 25 25 27 29 30 31 31 32 32 33 34 35 36 37 38 38 39 40 39 38 39 38 36 35 35 34 29 26 26 28 30 29 27 26 31 42 42 36 41 41 29 19 15 14 13 12 12 11 11 9 8 7 6 5 5
16 18 21 25 28 29 28 26 22 20 19 17 17 17 18 21 25 29 32 34 36 38 38 37 35 34 32 31 29 28 27 26 26 27 29 32 34 34 34 34 34 34 35 36 37 39 39 38 39 39 39 38 37 37 36 34 34 34 32 28 25 24 24 24 22 19 17 23 35 36 32 33 30 22 16 14 12 12 11 10 9 8 6 5 5 4 4 4
21 24 27 29 28 26 22 19 18 18 17 17 18 20 23 28 32 34 36 38 39 39 38 36 34 32 30 30 29 28 29 29 30 31 33 35 36 37 37 37 37 38 38 39 41 42 40 39 40 41 40 39 38 39 40 37 34 33 33 32 29 27 25 24 22 20 17 19 25 26 25 27 24 18 14 13 12 12 10 9 7 6 5 5 4 4 3 3
27 28 28 26 23 19 17 17 18 16 17 21 23 25 30 34 36 38 40 40 39 38 35 34 32 31 31 30 29 29 31 34 37 37 39 39 40 41 41 41 42 42 42 42 43 47 47 43 42 44 44 43 42 42 42 41 38 37 37 37 33 29 27 26 24 22 19 20 23 23 23 26 25 17 13 12 11 10 8 7 7 6 5 5 4 4 3 3
28 27 24 21 17 15 16 17 16 17 22 26 28 32 36 38 39 41 40 39 38 36 34 33 32 32 31 30 31 33 36 39 41 42 43 43 43 45 45 45 45 44 45 45 46 50 54 51 47 47 47 45 44 43 41 41 40 38 37 37 35 31 30 27 24 20 18 19 22 22 21 23 21 14 11 11 10 10 9 7 6 5 4 4 4 3 3 3
26 23 19 16 15 16 17 18 20 22 26 30 34 39 40 39 40 40 39 38 37 35 34 33 33 33 33 33 36 39 41 43 44 45 46 47 48 49 49 48 48 49 49 50 50 52 57 58 53 49 48 45 44 43 41 40 39 36 34 36 36 33 30 28 23 17 16 16 16 18 19 21 17 11 10 11 10 9 8 6 5 5 5 4 4 3 3 3
22 18 16 15 17 18 19 23 26 27 31 37 40 40 39 40 41 40 39 38 35 34 34 33 34 35 38 41 43 44 45 47 49 50 51 52 53 53 54 54 53 54 55 56 56 55 57 60 58 54 51 47 45 44 41 38 38 37 34 34 36 32 27 27 25 18 15 14 11 12 18 21 16 10 10 10 9 8 6 5 4 4 4 4 3 3 3 3
18 16 16 16 18 20 26 31 30 31 37 41 39 38 39 41 41 40 39 36 35 35 34 35 38 40 43 46 47 49 51 54 55 56 57 58 58 59 60 60 60 62 63 62 61 59 57 59 60 58 54 50 49 49 45 40 40 40 38 36 37 34 26 25 26 21 17 15 11 9 15 20 16 10 10 10 8 7 5 4 4 4 4 3 3 3 3 3
16 16 17 19 22 27 32 34 33 37 41 39 37 39 42 42 41 39 37 35 35 35 36 39 43 46 48 50 52 55 58 59 61 63 64 64 66 68 68 69 69 69 68 65 63 61 58 57 58 59 57 55 55 55 52 49 48 46 43 40 37 32 24 21 22 21 20 20 14 9 12 18 14 9 10 9 7 6 5 4 4 4 4 4 4 4 4 4
17 19 20 23 29 33 36 37 38 40 39 38 40 43 44 42 39 37 36 36 37 38 40 45 49 51 53 55 58 60 62 65 67 68 70 72 74 76 76 76 75 72 69 66 62 59 56 55 56 58 58 56 55 58 58 54 50 45 41 37 35 30 23 18 17 16 21 24 18 12 13 16 14 10 10 11 8 6 4 4 5 5 5 4 4 5 4 4
19 22 25 30 35 37 39 40 39 38 39 42 44 44 43 40 37 37 37 38 40 43 47 51 54 56 58 60 62 64 67 69 71 72 75 79 81 80 79 77 74 71 68 65 61 58 54 52 52 55 57 56 55 59 60 53 43 37 31 28 31 31 23 17 15 14 18 22 19 12 12 15 13 10 11 10 7 5 4 4 5 5 5 5 5 5 4 4
23 26 31 35 38 41 43 41 38 39 43 46 45 43 40 38 38 38 40 43 46 50 53 56 58 60 62 63 64 68 70 71 74 77 81 84 84 82 80 76 72 70 68 66 63 59 55 51 49 50 55 58 59 63 67 63 52 41 31 24 26 29 24 18 16 15 16 19 19 12 10 14 13 10 9 8 5 4 4 5 6 5 5 5 5 5 4 3
27 31 36 38 41 45 44 39 39 43 47 46 43 41 39 39 40 42 46 50 53 54 56 59 62 63 62 64 68 71 72 74 79 83 86 87 85 82 80 76 73 71 68 66 64 61 59 55 50 46 48 51 52 55 61 61 57 53 44 31 24 25 24 19 16 16 15 17 20 16 9 11 11 8 7 6 5 4 4 5 6 5 5 5 5 4 4 3
32 36 39 42 45 47 43 40 44 48 47 44 41 40 40 41 43 47 53 56 55 56 58 63 65 63 63 69 73 73 74 79 85 87 88 87 84 83 81 78 74 72 69 67 65 63 62 61 58 53 48 48 48 49 52 53 55 59 54 38 25 24 25 20 14 14 14 14 18 18 11 9 9 7 6 5 5 4 4 5 5 5 5 5 5 4 4 3
37 39 42 45 47 45 43 45 48 48 45 42 41 41 42 44 48 54 57 57 55 57 62 66 65 63 68 73 74 76 81 87 89 90 89 88 86 84 82 78 75 73 70 68 65 64 64 65 67 63 57 55 56 55 59 63 61 57 51 39 28 25 24 19 13 14 14 12 13 16 13 10 9 7 6 5 4 4 3 4 5 4 5 5 5 5 4 3
40 42 44 46 46 46 48 49 49 46 42 41 41 41 43 47 54 59 58 55 56 61 66 67 64 67 73 76 78 83 89 92 92 92 91 89 86 83 80 78 77 74 72 69 66 65 66 67 72 72 66 63 65 65 68 71 64 55 50 43 33 26 22 18 14 14 15 12 10 11 11 10 9 7 6 5 4 3 3 3 5 4 4 5 5 4 4 3
41 43 44 46 48 51 52 50 47 43 39 40 41 43 46 51 57 59 57 56 61 67 69 67 67 72 77 81 87 91 92 93 94 92 89 85 83 81 79 78 78 75 74 72 68 66 65 65 69 74 72 68 70 71 70 70 65 58 54 47 35 26 21 17 14 14 16 15 12 10 10 11 10 8 6 5 4 3 3 3 4 5 5 5 5 4 3 3
42 44 46 48 53 54 51 47 44 40 39 41 44 45 49 55 59 57 56 60 67 71 71 70 72 78 84 88 92 92 91 92 91 88 83 80 79 80 80 79 79 78 75 73 71 67 66 65 66 73 75 72 72 71 69 69 66 58 51 43 31 24 20 17 14 13 15 16 14 12 10 11 12 9 6 5 3 3 2 3 4 5 6 5 5 5 4 3
43 46 51 54 55 53 49 45 41 39 41 44 47 49 52 58 60 56 57 64 70 73 74 74 76 81 86 89 89 88 89 89 86 80 76 75 77 79 80 79 79 79 78 76 74 70 68 67 66 71 74 72 70 68 66 68 65 55 46 37 26 21 19 16 13 12 12 11 12 12 10 11 11 9 7 5 3 3 3 3 4 5 6 5 5 5 4 3
44 49 54 56 55 51 47 43 39 41 46 49 51 53 56 59 57 56 61 66 69 74 76 76 77 80 84 86 86 87 87 84 79 74 73 75 76 78 80 80 80 81 81 79 77 74 72 69 66 68 69 67 66 65 62 62 60 50 40 31 23 18 16 14 12 12 11 9 9 10 9 10 9 8 6 5 4 4 3 3 3 4 5 5 4 5 4 3
46 51 53 54 54 50 45 41 40 46 51 54 56 57 58 58 56 58 64 66 67 72 75 75 77 80 82 84 86 85 83 78 72 70 73 76 75 77 80 81 82 85 84 83 81 77 75 71 66 66 67 64 63 63 60 57 53 46 37 29 22 16 13 13 12 11 12 11 9 9 9 9 8 6 6 6 5 3 3 3 3 3 4 4 4 4 4 3
Wind_Speed
49 46 43 41 40 39 37 36 36 36 37 37 38 38 38 38 38 39 40 40 41 41 42 43 44 46 47 48 49 50 50 51 52 54 55 55 55 56 57 58 60 62 64 65 66 67 67 67 67 66 66 67 68 70 71 72 73 75 76 76 77 78 79 78 79 79 80 80 80 79 79 82 83 83 83 81 82 85 86 86 86 88 89 90 92 92 93 94
50 47 44 41 40 39 37 36 36 37 37 38 38 37 37 37 37 39 40 41 41 42 43 45 46 47 48 48 49 50 51 52 53 54 55 55 56 57 59 61 63 64 66 66 67 66 66 66 66 67 68 70 72 73 74 75 76 77 78 77 77 77 76 75 74 74 74 73 72 71 71 74 75 75 75 74 75 77 78 79 80 80 81 83 84 85 86 87
50 47 44 42 40 39 38 37 37 37 38 37 37 36 36 36 37 39 40 41 42 43 44 45 46 47 48 48 49 50 51 52 53 54 55 56 58 59 61 63 65 66 66 66 66 65 65 66 67 69 71 73 74 75 77 78 77 77 75 72 71 69 67 67 65 65 65 65 64 63 63 66 68 68 69 68 68 70 71 72 73 73 74 75 76 77 78 79
49 46 44 42 40 39 38 38 37 37 37 36 36 36 36 37 38 39 40 41 42 43 44 45 46 47 47 48 49 50 51 52 54 55 57 58 60 62 64 65 66 65 65 64 65 66 67 69 71 72 74 75 76 76 75 74 71 69 67 63 62 60 59 60 59 59 59 59 60 59 59 61 64 65 66 66 65 67 68 68 69 70 71 71 72 73 74 75
47 46 44 43 41 40 39 38 37 37 36 36 35 36 36 37 38 38 39 40 41 42 43 44 45 46 47 48 49 50 52 54 55 57 59 61 62 64 64 64 64 63 63 65 66 68 70 72 74 75 75 74 72 69 66 63 61 59 58 57 56 55 55 56 57 57 58 58 59 60 59 60 63 65 67 68 68 68 69 70 71 71 72 72 73 74 75 75
46 45 44 43 42 40 39 38 37 36 35 35 35 35 36 36 37 38 39 40 41 41 43 43 45 46 48 49 50 52 54 56 58 59 61 62 63 62 62 62 62 63 65 67 69 71 73 73 73 71 68 65 62 59 56 55 54 54 54 54 54 55 55 56 58 59 60 61 62 63 64 65 66 68 70 72 73 73 73 74 75 76 77 77 78 78 79 79
46 45 44 43 41 40 39 38 37 36 35 35 35 36 36 36 37 38 39 39 40 41 42 44 45 47 49 51 53 55 57 58 60 61 61 61 60 60 61 62 64 66 68 70 72 72 71 68 65 61 58 55 54 52 52 52 53 54 55 56 57 58 59 60 61 63 64 66 67 67 68 69 71 72 74 76 77 78 78 79 80 81 82 82 83 83 84 84
46 45 44 42 41 40 39 38 38 36 36 36 36 36 36 36 37 37 38 38 39 41 43 45 47 49 51 53 55 57 59 60 60 59 59 59 60 61 63 65 67 69 70 70 68 65 61 58 55 53 52 52 52 52 53 54 55 57 58 60 61 62 63 65 66 67 69 70 71 72 72 73 75 77 78 80 81 81 82 83 84 85 86 87 87 88 88 89
44 43 42 41 40 40 39 38 38 37 36 36 36 36 36 36 36 36 37 38 40 42 45 47 49 51 53 55 57 58 58 58 57 58 58 60 62 64 66 68 69 68 65 62 58 55 52 51 51 51 51 53 54 55 56 58 59 61 62 64 65 67 68 69 70 71 72 73 74 75 75 77 79 80 81 82 83 84 86 86 87 88 89 90 90 91 92 93
42 42 41 40 39 38 37 37 37 36 36 35 35 35 35 35 35 36 38 40 42 45 47 49 51 53 55 56 56 56 56 56 57 59 60 63 65 66 67 66 63 59 56 53 51 50 50 51 52 53 54 56 57 59 60 62 63 65 66 68 69 70 71 72 73 74 75 76 76 77 77 78 81 83 83 84 86 87 88 88 89 90 91 92 92 93 94 95
41 40 39 38 37 36 36 35 35 35 34 34 34 34 35 35 36 38 41 43 45 47 49 51 53 55 55 54 54 54 56 57 59 61 63 65 65 64 61 57 53 51 49 49 49 51 52 53 55 56 58 60 61 62 64 65 66 68 69 70 72 73 74 74 75 75 76 77 78 78 77 78 81 83 83 84 86 86 87 88 89 90 91 91 92 93 94 96
39 38 37 36 35 34 33 33 33 33 33 33 33 34 35 37 39 42 44 45 47 49 51 53 54 53 52 52 54 55 57 59 61 63 63 62 58 54 51 49 48 48 49 50 52 54 55 57 58 60 61 63 64 65 66 68 69 70 71 72 73 73 74 75 75 74 75 76 76 76 75 75 78 82 82 82 84 84 85 86 88 89 89 90 91 92 93 94
37 35 34 33 32 32 32 32 32 32 32 32 34 35 38 40 42 44 45 47 49 51 52 52 51 51 52 53 55 57 59 61 61 59 56 52 49 47 47 47 48 49 51 53 55 57 58 60 61 63 64 65 67 68 68 69 70 71 71 71 72 72 72 73 74 73 73 74 75 74 74 74 76 80 81 82 83 83 84 85 86 87 88 89 90 91 92 93
34 32 32 31 31 31 31 31 31 31 32 34 36 38 40 42 43 45 47 49 50 50 50 50 51 52 53 55 57 59 59 57 54 50 47 45 45 46 47 49 51 53 54 56 58 59 61 62 63 64 66 67 68 68 68 69 69 69 69 69 69 70 70 70 72 73 73 74 75 74 74 74 74 78 79 80 81 81 82 84 84 85 86 88 89 89 90 91
31 31 30 30 30 30 30 30 31 32 34 36 38 40 41 43 45 47 48 48 48 48 49 50 51 53 55 57 57 55 52 48 45 44 44 44 46 48 50 51 53 55 56 58 59 61 62 63 64 64 65 65 66 66 66 65 66 66 67 67 68 68 69 69 70 72 72 74 74 73 73 73 73 76 78 78 79 80 81 82 83 84 85 86 86 87 88 88
30 30 29 29 29 29 29 31 32 35 36 38 40 41 43 44 45 46 46 46 47 48 49 51 53 54 54 53 49 46 43 42 42 43 45 47 49 50 52 53 55 56 58 59 60 61 62 62 62 62 62 62 63 63 63 63 63 64 65 65 66 67 67 68 68 70 71 73 75 75 74 74 75 77 79 80 81 82 83 84 84 85 85 86 87 87 88 88
28 28 27 27 28 29 31 32 34 36 38 39 41 42 42 43 43 44 45 46 47 49 51 52 52 50 46 43 40 39 40 41 43 45 47 49 50 52 54 55 56 57 58 59 59 59 59 59 59 60 60 60 60 61 60 60 61 62 63 64 65 66 67 68 69 71 72 73 76 77 77 77 77 79 82 83 84 85 86 87 86 87 88 88 88 89 89 89
25 25 26 27 29 30 32 34 35 37 38 39 39 39 40 41 42 43 45 47 48 49 48 46 43 39 37 37 38 39 41 43 45 47 48 50 51 53 54 55 56 56 56 56 57 57 56 56 56 56 56 57 58 59 60 60 60 62 63 64 66 67 69 70 70 71 72 73 77 78 78 80 79 79 83 86 87 89 90 89 89 89 90 90 90 91 92 92
24 25 27 28 29 31 32 33 34 35 35 36 36 38 39 40 42 44 45 46 45 42 39 36 34 34 36 38 39 41 43 45 46 47 49 50 51 52 53 53 53 53 53 53 53 53 53 53 53 54 55 56 58 59 61 62 62 63 64 65 66 66 68 70 70 71 71 72 76 78 78 81 83 80 83 88 90 91 92 92 92 93 93 92 93 94 94 95
24 25 26 27 28 29 30 30 31 32 33 34 36 37 39 41 42 42 40 37 35 33 32 32 34 35 37 39 41 42 44 45 46 48 49 50 50 50 50 50 50 49 49 49 49 50 51 52 53 54 56 57 58 59 60 61 62 63 63 64 65 64 65 68 70 70 72 72 74 78 77 80 85 83 84 89 92 94 94 94 95 95 95 95 95 96 96 97
23 23 24 25 25 26 27 29 30 32 33 35 36 38 38 38 35 33 30 29 29 30 32 34 35 37 39 40 41 42 44 45 46 47 47 47 47 46 46 45 44 45 46 47 49 50 52 53 54 55 55 56 57 57 58 59 60 61 61 62 63 63 64 67 70 69 71 72 73 77 77 79 86 87 86 90 94 95 95 96 97 97 97 97 97 97 98 98
21 21 22 23 24 26 27 29 30 32 33 34 34 32 29 27 26 25 26 28 29 31 33 35 36 38 39 40 41 43 44 44 44 43 43 42 42 41 41 42 43 45 47 48 49 50 51 51 52 52 53 53 54 55 55 56 56 57 59 60 61 63 63 64 69 71 73 75 74 75 75 78 84 88 89 91 94 95 95 96 98 98 97 97 98 98 98 98
20 21 22 23 25 26 28 29 30 30 28 26 24 22 21 22 23 25 26 28 30 32 34 35 36 38 39 40 40 41 41 40 40 39 38 38 39 40 42 43 44 45 46 46 46 47 47 48 49 49 50 51 51 52 53 54 55 56 57 59 60 63 64 63 64 68 73 78 79 77 75 75 81 87 90 92 94 94 94 95 96 96 96 96 97 98 97 97
20 21 22 23 24 25 25 24 23 21 19 17 18 19 20 22 24 26 28 29 31 32 33 35 36 37 38 38 38 37 37 36 36 36 37 38 40 41 41 41 41 42 43 44 45 46 46 47 48 49 49 50 51 52 53 55 56 57 58 60 61 63 66 67 66 66 70 76 82 82 78 76 79 85 89 90 92 93 93 94 94 94 95 95 96 97 97 98
20 20 20 20 19 18 17 16 14 14 14 16 17 19 21 23 25 26 28 29 31 32 33 35 35 35 35 35 34 33 33 33 34 36 37 38 38 37 38 38 40 42 44 45 47 48 49 49 50 51 52 53 53 54 55 57 58 60 61 63 65 66 68 71 72 71 72 76 81 84 81 76 76 83 89 89 88 91 91 92 91 92 92 92 93 94 95 96
15 15 14 13 12 11 11 11 12 13 15 16 18 20 22 24 25 26 27 29 31 32 32 32 32 31 31 30 30 30 32 33 34 34 33 34 35 36 38 40 42 44 46 48 50 51 52 53 53 54 55 56 57 58 59 60 62 63 65 67 69 71 72 74 75 76 76 78 82 85 84 79 73 78 87 87 85 88 89 89 88 88 89 89 89 91 92 93
10 9 9 8 8 9 10 11 13 14 16 17 19 20 22 23 24 26 27 28 29 29 29 28 28 27 27 27 29 30 31 31 30 30 30 33 36 39 41 44 46 48 50 52 53 55 56 57 58 58 59 60 61 63 64 64 65 66 68 69 71 73 74 76 76 78 78 79 83 86 88 84 75 76 85 85 84 86 86 86 86 87 88 88 88 89 90 92
7 6 6 6 7 8 10 12 14 15 16 17 19 20 22 23 24 25 26 26 25 25 25 25 25 25 26 27 28 28 27 28 30 32 34 36 39 41 44 47 50 52 53 55 56 57 59 60 62 63 64 65 65 66 67 67 68 68 69 71 73 74 76 77 78 78 79 80 82 84 88 87 79 78 85 85 84 86 86 86 86 86 87 88 89 89 89 90
3 3 4 6 8 9 11 12 14 15 16 17 19 21 22 23 23 23 22 21 21 22 22 23 24 25 25 25 24 24 26 28 32 35 38 41 42 44 47 50 53 55 57 59 61 62 63 64 66 66 67 68 69 69 70 70 70 71 71 71 73 75 77 78 78 78 78 79 82 84 86 89 84 80 82 82 84 88 89 89 88 86 86 86 87 87 86 88
1 3 5 7 9 10 11 12 13 15 16 18 20 20 21 21 20 19 18 18 19 20 21 22 23 23 23 23 24 26 29 31 34 37 40 43 46 48 51 53 56 59 62 65 67 68 68 68 69 71 71 71 72 73 74 74 74 74 73 73 73 74 76 78 78 78 77 77 81 83 84 88 90 87 84 81 82 87 90 90 88 87 86 85 86 85 85 87
3 5 6 7 8 9 11 12 14 16 17 18 18 18 17 17 16 16 17 18 19 20 22 22 22 22 23 26 29 32 35 38 41 43 46 49 52 55 57 59 61 64 66 68 70 71 72 72 72 73 74 74 74 76 76 77 78 78 77 76 75 74 74 75 77 77 76 76 78 82 83 85 89 89 87 82 80 84 87 87 86 86 84 83 84 83 83 84
4 5 6 6 8 10 12 14 15 16 16 15 15 14 13 13 14 16 18 18 19 20 21 21 22 25 28 31 34 38 42 45 48 51 54 56 59 61 62 64 65 66 68 69 71 72 73 74 74 74 75 76 76 76 78 79 80 80 81 80 79 77 75 74 74 73 72 74 78 81 83 85 87 88 86 83 82 84 85 84 84 84 81 78 78 78 79 82
4 4 6 7 9 12 13 14 14 13 13 12 12 11 12 14 16 17 18 19 19 20 21 23 26 29 33 37 41 44 47 50 52 54 57 59 61 63 64 65 66 67 69 70 72 73 74 75 75 76 77 78 79 79 80 81 82 83 84 85 85 83 81 78 77 75 71 72 76 79 82 87 90 88 85 84 84 85 85 83 83 82 80 77 76 77 78 80
4 5 7 10 11 12 12 11 11 10 10 10 11 12 14 16 17 17 18 19 20 22 25 28 32 35 39 42 45 48 51 53 55 57 59 61 63 65 66 68 69 70 71 73 74 76 77 78 79 80 81 82 83 83 84 85 85 86 87 88 88 88 87 85 84 82 77 74 75 77 81 87 92 89 85 83 84 84 83 82 82 82 83 80 78 79 80 78
6 8 10 11 11 10 9 9 9 8 9 11 12 15 17 16 16 17 18 20 23 26 30 33 37 41 43 46 48 50 53 55 58 60 62 63 65 66 68 70 71 73 74 75 77 78 80 82 83 84 85 85 85 85 85 86 87 86 86 87 88 88 89 87 85 84 82 78 78 79 79 85 91 88 84 84 84 84 84 82 82 82 81 80 79 79 78 76
9 10 11 10 9 8 9 8 7 9 11 12 14 17 17 15 17 18 20 24 28 32 35 38 41 43 46 48 50 53 55 57 59 61 63 65 67 69 71 72 74 75 77 78 79 80 81 83 85 85 86 86 86 85 86 86 86 85 85 86 88 88 89 89 86 82 81 79 79 79 80 85 91 86 81 84 85 85 85 84 82 80 79 80 80 78 76 73
10 10 9 8 8 9 9 9 10 11 13 14 17 17 15 16 19 21 25 29 33 36 39 41 44 46 49 51 52 55 57 59 61 63 65 68 70 71 73 75 76 78 79 81 82 82 82 83 85 86 86 87 86 85 86 86 86 86 86 86 87 88 88 91 90 84 80 78 76 76 81 89 93 86 80 83 85 85 84 82 80 78 79 81 79 75 73 71
10 9 8 9 9 9 10 12 12 13 16 18 17 15 16 19 22 26 30 34 36 39 41 43 46 48 50 52 54 56 59 62 64 67 69 71 72 74 76 78 79 81 82 83 84 84 84 83 84 86 87 87 87 87 87 87 88 89 89 88 89 89 89 91 93 90 85 81 75 73 79 90 94 87 83 85 85 85 83 80 78 76 77 78 76 74 72 71
9 9 9 10 10 11 14 13 12 16 19 17 15 16 20 23 26 31 34 36 39 41 43 45 47 49 51 53 56 59 62 65 68 70 72 74 75 77 79 80 81 82 83 84 84 85 85 84 84 85 87 88 89 88 89 90 90 90 90 91 91 92 92 92 95 95 92 89 82 75 78 89 95 89 87 87 86 85 83 79 77 76 77 78 76 75 73 71
9 10 10 11 13 16 16 14 15 18 17 15 17 21 24 27 31 34 36 38 40 42 44 47 48 50 52 55 58 62 64 67 70 72 74 76 78 79 80 81 82 83 84 84 84 84 85 85 84 85 87 89 89 89 91 92 92 91 91 91 92 93 93 92 93 95 96 95 91 82 80 88 94 89 88 90 88 86 83 77 76 78 79 78 77 76 73 70
11 11 12 14 17 17 17 17 17 16 15 18 22 24 28 31 34 36 38 40 42 44 46 48 49 51 54 57 60 63 66 69 71 73 75 77 78 79 80 81 82 83 83 84 84 84 85 86 87 87 88 89 90 91 93 94 95 94 92 92 93 94 94 94 92 91 94 96 93 86 83 88 93 91 90 92 91 87 83 77 75 78 79 76 74 74 71 68
12 13 15 17 18 18 18 18 15 15 19 22 25 28 31 34 35 38 39 41 44 46 47 48 50 53 55 57 60 64 67 69 71 74 75 77 78 79 80 82 82 83 84 85 86 86 87 88 89 90 91 93 94 94 94 95 97 96 95 94 95 95 95 96 96 93 93 95 92 83 79 85 92 91 89 89 87 85 83 81 77 76 77 75 71 70 68 66
13 15 17 18 18 19 18 16 16 19 23 25 28 31 33 35 37 39 41 43 45 47 48 49 51 53 55 58 61 64 67 69 71 74 75 77 78 80 81 83 84 85 87 88 89 90 91 92 92 91 92 93 93 93 92 94 96 98 98 97 96 97 96 97 98 96 94 95 95 85 76 80 88 87 85 85 83 82 81 80 77 74 73 72 69 67 65 63
14 16 17 17 18 19 17 16 19 23 25 27 30 32 34 36 38 40 42 45 46 47 48 50 52 54 56 59 62 64 66 69 71 73 75 77 79 81 83 85 87 88 90 91 92 93 95 96 97 97 95 95 95 94 94 95 97 99 100 99 98 97 98 97 96 94 91 91 96 92 80 77 83 84 83 84 84 81 79 77 75 73 71 69 66 65 63 61
14 16 17 17 18 17 16 18 22 24 27 29 31 32 35 37 39 41 44 45 46 47 48 50 53 55 58 60 63 64 66 69 71 73 75 78 80 83 85 88 89 91 93 94 95 97 98 99 101 103 103 103 103 103 102 102 102 100 100 101 100 99 99 99 96 94 90 87 91 96 88 80 81 83 82 83 83 81 77 73 71 70 69 69 67 64 62 59
16 17 17 17 17 16 18 20 23 26 28 30 31 34 36 38 40 42 44 45 45 46 48 52 55 57 59 61 62 64 66 68 71 73 76 79 82 84 87 89 91 93 95 97 98 99 100 101 103 105 107 108 108 108 107 106 104 102 101 102 102 101 100 100 98 95 93 87 84 91 94 88 84 85 85 84 82 77 73 70 68 67 66 67 67 65 62 59
17 17 17 16 16 17 19 22 25 27 28 30 32 34 36 38 41 43 44 44 45 46 50 54 57 58 59 61 62 63 66 68 71 74 77 80 83 85 87 90 92 95 97 99 100 101 102 103 104 106 108 109 109 109 108 106 106 105 105 104 103 101 100 101 101 98 95 90 83 83 88 88 85 85 87 87 84 78 72 68 67 66 65 65 66 66 65 62
16 16 16 15 17 18 21 23 25 27 29 31 33 35 37 39 41 43 43 43 44 48 52 56 57 58 59 61 62 64 66 69 72 75 78 81 83 85 88 90 93 96 98 100 101 102 103 104 104 106 108 109 109 109 107 107 107 107 106 104 102 101 100 101 102 99 97 95 91 86 87 89 88 85 84 85 84 79 73 68 67 67 67 66 65 66 66 65
16 16 15 16 17 19 21 24 26 27 29 32 34 35 38 40 42 42 42 42 45 49 53 55 57 58 60 61 63 65 68 71 73 76 79 81 83 86 88 91 94 97 99 101 103 104 105 105 106 107 108 109 109 109 109 108 108 107 106 104 102 102 102 101 100 98 97 96 95 93 91 92 91 88 84 82 80 78 75 71 69 67 66 65 63 62 62 62
15 15 15 16 17 19 22 24 26 28 30 32 34 36 39 40 42 42 41 43 46 49 53 55 57 58 61 63 65 68 70 73 75 78 80 81 84 86 89 92 95 98 101 103 104 105 106 107 107 107 108 109 109 109 110 109 108 108 106 105 104 102 102 101 99 96 94 93 93 95 93 91 91 88 85 83 81 79 76 73 68 63 62 61 59 59 59 59
14 14 14 15 17 19 22 24 26 28 31 33 35 37 39 41 42 41 42 44 47 49 52 54 57 59 62 64 67 70 72 75 77 78 80 82 85 88 91 94 96 99 102 104 105 106 107 108 108 108 108 110 111 111 111 110 109 109 108 107 106 103 101 102 101 98 96 94 93 93 93 91 90 87 85 85 84 82 77 72 66 62 60 60 59 58 58 57
13 12 13 15 17 20 22 24 26 29 32 34 36 38 40 41 42 42 44 46 48 49 51 54 57 60 63 65 68 71 73 76 78 79 81 83 85 89 92 95 98 101 103 105 106 107 108 109 110 110 110 111 112 112 113 112 111 111 110 109 107 104 102 102 103 101 99 98 95 93 92 90 88 87 84 83 84 83 77 72 68 64 62 62 60 58 57 56
Wind_Direction
212 214 215 217 218 219 220 222 223 225 229 234 240 244 247 250 253 255 257 259 262 266 269 272 274 276 277 278 278 278 278 279 280 281 282 283 285 287 289 290 292 292 292 291 291 291 291 291 291 291 291 290 290 290 290 289 289 288 288 288 287 286 286 285 284 282 281 281 280 279 278 277 277 276 275 275 274 273 272 271 270 270 269 269 269 268 268 268
211 214 216 217 219 220 222 223 225 228 232 237 242 246 250 253 256 257 259 261 265 268 271 274 275 276 276 276 277 278 279 280 281 283 284 286 288 289 291 291 291 291 291 291 291 291 291 291 291 291 291 291 291 291 291 290 290 289 289 288 287 286 286 285 284 283 282 282 281 281 279 278 278 278 277 276 274 274 274 273 272 271 271 270 270 270 269 269
210 212 214 217 219 221 223 226 228 231 235 239 244 249 253 256 259 260 262 264 267 270 272 273 273 274 275 277 278 278 280 282 284 285 287 288 290 291 291 291 291 291 291 291 292 292 292 291 291 291 291 291 291 291 291 291 290 290 289 288 288 287 287 286 286 285 285 285 284 283 282 281 281 280 280 279 277 276 275 275 274 273 273 272 271 271 271 271
208 211 213 216 219 221 224 227 230 233 237 242 247 252 256 259 261 262 264 266 268 270 271 272 273 275 276 278 280 281 283 286 287 288 289 290 291 291 291 291 291 291 292 292 292 292 291 291 291 291 291 292 292 292 291 291 291 291 291 290 290 290 290 290 289 288 288 287 286 285 284 283 283 283 282 281 280 278 278 277 276 275 274 273 273 272 272 271
207 210 212 215 218 222 225 228 231 235 239 244 249 254 258 260 261 263 264 265 267 269 270 272 275 277 280 282 284 286 287 288 289 289 290 290 291 291 291 292 292 292 292 292 291 291 292 292 292 293 293 293 293 293 292 292 292 293 293 293 293 292 291 290 290 289 287 286 286 285 284 283 283 283 283 282 281 280 279 278 278 276 276 275 274 273 273 272
207 210 213 215 218 222 226 229 233 237 241 245 249 253 256 259 260 261 263 265 267 270 273 276 279 282 284 287 288 289 289 290 290 290 291 291 291 292 292 292 292 292 292 292 292 292 293 294 294 294 294 294 294 294 294 294 294 294 293 293 292 291 290 288 288 287 286 285 285 285 284 283 283 283 282 282 282 281 280 279 279 278 277 276 276 275 274 273
206 210 213 216 219 223 227 231 235 238 241 244 248 252 255 257 259 261 264 267 271 275 279 282 284 286 288 289 289 290 290 291 291 291 292 292 292 292 291 291 291 292 292 293 293 294 295 295 295 295 295 295 295 295 294 294 293 293 292 291 290 289 288 288 287 286 286 286 286 285 285 285 284 283 283 282 282 282 281 280 280 279 279 278 277 276 275 275
206 210 213 216 220 224 228 232 235 238 241 245 249 253 256 258 261 264 267 272 277 282 285 286 287 288 289 290 290 291 291 291 291 291 291 291 291 291 291 292 292 293 293 294 295 295 295 296 296 295 295 295 294 293 292 292 291 291 291 290 289 289 288 288 287 287 287 287 287 287 286 286 285 284 283 283 282 282 281 280 280 279 279 278 278 277 276 276
205 209 213 216 220 224 227 231 234 238 241 246 251 255 258 261 264 269 275 280 283 285 286 286 288 289 290 290 290 291 291 291 290 290 290 290 291 292 292 293 294 294 294 295 295 295 295 295 295 294 293 292 292 292 291 291 291 291 291 290 290 290 290 289 289 289 289 288 288 288 287 286 285 284 283 283 282 281 280 280 279 279 278 278 277 277 276 276
205 208 212 216 219 223 226 230 234 239 243 248 253 257 261 266 272 277 282 283 284 284 285 287 288 289 290 290 290 290 289 289 289 290 291 292 292 293 293 294 294 295 295 295 295 295 294 294 293 293 292 292 292 292 292 292 292 292 293 292 292 292 291 291 291 290 289 288 288 287 286 285 284 283 282 281 281 280 279 279 278 278 277 276 276 276 275 274
205 208 211 215 219 223 227 232 236 241 246 251 257 262 268 274 279 282 282 282 283 285 286 287 289 289 289 288 288 287 288 289 290 291 292 293 293 294 294 294 295 295 294 294 294 294 294 293 293 293 294 294 294 294 294 294 294 294 294 293 293 292 291 290 290 289 288 287 287 286 285 284 283 282 281 281 280 280 279 279 278 278 277 276 275 275 274 274
205 208 212 216 221 225 230 235 240 245 251 257 263 270 275 278 279 280 280 282 284 285 287 288 288 288 287 287 287 288 289 291 292 292 292 293 293 294 294 294 294 294 294 294 294 294 294 294 295 295 296 296 296 296 296 295 295 294 293 293 292 292 291 291 290 289 288 288 287 286 286 285 284 283 283 282 281 280 280 279 278 278 277 276 275 275 274 273
206 210 214 219 224 229 235 240 245 251 257 264 269 273 275 276 277 278 280 282 284 285 286 286 286 285 286 287 288 290 291 291 292 292 292 293 294 294 294 294 294 294 294 295 295 296 297 297 298 298 298 298 297 297 296 295 295 294 294 294 294 294 294 294 293 292 291 290 289 288 286 285 283 282 282 281 280 280 279 278 277 276 275 275 274 273 273 272
209 213 218 223 228 234 239 245 251 258 263 267 270 271 272 274 276 278 281 282 284 284 284 283 284 285 287 288 289 290 291 291 291 291 292 293 294 294 294 294 294 295 296 297 298 299 300 299 299 299 298 298 297 297 297 297 297 297 297 297 297 297 296 295 294 293 292 290 288 287 285 284 282 282 282 282 282 281 280 280 278 278 277 276 275 274 273 273
211 216 222 227 233 239 245 251 256 261 264 266 267 269 272 274 276 279 280 281 282 282 282 283 285 287 288 289 289 290 290 290 291 292 293 294 294 295 295 296 297 298 300 300 300 300 300 299 299 299 299 299 299 300 300 301 301 301 300 300 299 298 297 296 295 294 294 293 291 291 290 290 290 290 290 290 289 288 287 286 285 284 283 282 281 280 278 277
214 220 226 231 237 243 249 254 257 260 262 264 267 269 272 274 276 278 279 279 280 281 283 285 287 288 288 289 289 290 291 292 293 294 294 295 296 297 298 299 300 301 301 301 300 300 300 301 302 303 303 304 304 304 304 303 303 302 301 301 301 300 299 299 299 299 299 299 299 299 299 299 299 298 297 296 294 293 291 290 289 288 287 286 285 284 283 281
217 223 229 235 241 246 250 253 256 259 262 265 267 270 272 274 275 276 278 279 281 283 285 286 287 288 288 288 290 292 293 293 294 295 296 297 299 300 301 301 302 302 302 302 303 304 305 307 308 308 308 307 306 306 305 304 304 304 304 304 304 304 304 304 304 304 304 304 303 303 303 303 302 301 300 298 297 295 293 292 291 290 289 288 287 286 285 284
221 227 233 238 242 246 250 254 257 260 263 266 268 270 272 273 275 277 279 282 284 285 286 286 287 288 290 291 292 293 293 294 296 297 299 300 301 301 301 302 302 304 305 307 309 310 311 311 311 310 309 309 308 309 309 309 309 309 309 309 309 308 308 307 307 306 306 305 304 304 304 303 302 302 300 299 297 296 295 294 293 292 291 291 290 289 288 287
223 229 234 239 243 248 251 255 258 261 263 266 268 270 272 275 278 280 283 284 285 285 286 287 289 290 291 293 294 295 296 297 298 299 300 301 302 302 304 306 308 310 312 313 313 313 313 313 313 313 313 313 313 313 313 313 313 312 312 311 310 309 308 307 306 306 305 305 304 304 304 304 302 302 301 299 298 298 297 296 296 294 294 293 292 290 289 288
224 230 235 239 244 248 251 255 258 261 264 267 270 273 276 279 281 282 283 283 284 286 288 290 291 292 293 295 296 297 298 298 299 300 302 304 306 309 311 314 315 315 315 315 316 317 318 318 319 319 318 317 316 316 315 314 314 313 312 310 309 308 307 306 305 305 305 305 304 303 305 304 302 302 301 300 299 298 298 298 297 295 294 293 292 290 289 288
224 229 234 239 244 249 253 257 260 264 268 272 275 278 279 280 280 281 283 284 287 289 291 292 294 296 297 297 297 298 300 301 303 305 308 311 314 316 317 317 317 318 320 322 323 324 324 323 323 321 320 319 318 317 316 315 314 313 312 310 309 308 308 307 306 307 306 305 305 304 305 304 302 302 301 299 298 297 298 297 296 295 294 293 292 291 289 289
225 231 237 243 248 253 257 261 266 270 273 275 276 277 277 279 281 283 285 287 290 292 294 296 297 297 297 298 299 302 304 306 309 312 315 316 317 318 319 322 325 327 328 329 329 328 327 326 325 323 323 322 321 319 317 316 315 314 313 312 311 310 310 309 309 309 308 306 305 304 304 304 302 301 300 299 298 297 297 296 295 294 294 293 292 291 290 289
231 238 244 249 254 259 264 267 270 271 272 272 273 275 277 280 283 286 289 292 295 296 297 297 296 296 298 301 304 306 309 312 315 317 319 321 324 327 330 332 334 333 333 333 332 332 330 330 329 328 327 325 324 322 321 320 319 318 317 316 315 313 312 311 310 310 309 307 306 305 305 304 302 301 300 299 298 297 297 296 295 294 294 293 292 292 291 290
240 246 252 256 260 264 265 266 266 266 268 271 274 277 280 284 288 292 295 297 297 296 295 295 297 300 303 306 310 313 316 318 320 324 328 332 335 336 338 338 338 338 338 338 337 336 336 335 334 332 331 330 329 327 326 325 323 322 321 319 318 317 316 315 314 313 311 308 306 306 307 306 305 303 300 299 299 298 297 296 295 295 294 294 293 292 292 291
247 252 255 256 257 257 257 258 261 265 270 274 279 283 289 293 295 296 296 295 294 294 297 300 303 306 310 314 317 320 323 326 331 336 339 340 340 341 341 341 342 342 341 341 340 339 338 338 337 335 335 334 332 331 330 328 327 326 326 324 323 321 320 319 318 316 314 311 308 307 307 307 307 304 301 300 299 298 297 296 295 294 294 293 293 292 291 291
242 241 241 241 241 245 250 257 264 271 278 284 290 293 295 295 295 294 293 294 297 300 304 306 309 313 317 321 325 330 334 338 341 342 342 342 342 342 343 343 343 342 342 342 341 340 340 339 338 337 336 336 335 333 333 332 331 330 329 328 326 324 323 321 320 319 317 315 311 309 308 308 309 305 301 300 300 298 297 296 296 296 295 294 293 293 293 292
213 214 218 226 237 250 261 270 278 285 290 293 294 294 294 294 293 294 297 301 305 308 310 313 316 320 325 331 337 342 344 343 342 341 342 343 344 344 344 344 343 342 343 343 342 342 341 341 340 339 338 337 336 336 335 335 334 333 332 330 328 326 324 322 321 320 318 316 313 310 310 310 312 308 303 302 302 300 299 300 300 299 298 298 297 296 295 294
191 204 223 243 261 273 281 286 290 292 293 292 293 294 294 295 298 302 307 309 311 315 318 322 327 333 339 345 347 347 345 343 343 344 344 344 344 344 344 344 344 344 344 343 342 342 342 342 341 341 340 339 338 337 337 336 335 334 333 332 329 327 325 322 322 321 319 317 313 311 311 312 314 311 306 307 306 304 304 304 302 301 301 301 299 297 297 296
197 237 266 281 286 287 290 292 292 293 294 295 296 297 299 303 308 311 312 314 319 324 329 335 341 347 350 349 347 345 344 344 345 346 346 345 344 344 344 344 345 345 344 344 344 344 344 344 342 342 341 341 340 338 338 337 336 335 334 332 330 327 325 324 323 322 321 319 315 314 314 313 313 312 310 311 310 310 309 306 305 304 303 301 300 300 300 299
257 280 284 284 287 291 294 296 298 299 299 300 301 305 310 313 314 315 319 326 332 336 342 348 352 353 350 347 346 345 345 345 345 344 344 344 343 344 344 344 346 347 347 347 346 345 345 344 344 343 342 342 341 339 339 338 336 335 334 333 331 329 327 325 325 324 323 321 317 316 317 315 314 314 313 314 313 312 310 309 309 308 307 306 305 305 304 301
262 274 280 288 297 300 301 303 304 304 305 308 311 316 317 316 319 330 339 343 344 349 354 356 356 354 351 350 350 349 348 348 347 347 346 346 346 347 348 348 349 349 349 348 346 345 345 345 345 344 343 343 342 340 339 338 337 335 334 334 333 331 329 327 326 325 324 323 319 318 319 316 313 313 313 315 314 312 310 311 311 310 309 309 307 305 303 300
277 286 296 304 308 307 310 310 309 311 314 318 322 323 321 328 343 351 353 354 356 359 0 358 358 356 355 354 353 353 353 352 352 351 351 351 351 351 351 351 350 350 349 348 347 346 346 346 346 345 344 344 343 341 340 339 337 336 334 334 334 333 332 330 327 326 327 327 323 321 320 316 312 313 315 317 317 314 313 312 311 310 309 307 306 305 303 300
301 305 312 314 316 319 317 313 316 323 326 331 336 337 345 359 5 4 3 5 5 4 2 0 360 359 357 357 356 356 355 354 353 353 354 354 353 352 352 351 350 350 350 349 348 348 347 347 347 346 345 345 344 343 341 340 338 337 336 336 336 335 334 333 331 331 333 331 326 323 321 317 315 316 319 321 319 316 315 314 312 312 312 312 311 308 302 299
321 328 327 326 327 323 319 325 336 336 340 354 358 2 12 15 14 13 12 13 10 7 4 2 1 0 359 359 358 357 356 356 355 355 355 354 353 353 352 352 351 351 351 351 350 349 348 349 348 347 346 346 345 344 341 339 339 339 337 336 336 335 335 335 335 334 334 333 329 326 324 320 317 319 322 322 319 317 316 316 316 317 317 316 313 306 303 303
345 343 337 335 332 329 339 353 351 349 8 18 15 20 25 23 21 21 19 15 11 7 5 3 3 2 1 360 359 358 358 358 357 356 355 355 354 354 353 353 353 352 352 352 352 351 349 349 349 348 346 346 345 343 341 339 339 339 337 335 335 336 335 335 335 334 334 334 332 329 327 322 318 320 324 323 320 319 319 320 321 320 318 315 310 306 307 308
352 348 346 342 345 359 13 15 9 20 30 27 27 34 33 29 27 23 17 13 10 8 6 5 4 2 1 1 360 360 359 359 358 357 356 355 355 355 355 354 354 354 354 353 353 353 350 349 349 348 346 345 345 343 341 339 338 338 338 337 337 337 336 334 334 335 335 335 334 331 330 324 319 323 327 324 322 322 322 322 321 321 319 314 310 310 311 311
357 356 356 2 17 31 37 36 33 37 40 38 41 42 36 31 26 19 15 13 10 9 7 6 5 4 3 2 2 1 0 359 359 358 357 357 356 356 356 356 356 355 355 355 355 354 351 349 348 348 346 345 345 344 342 340 339 340 340 339 338 338 337 335 334 337 337 336 335 335 333 326 322 326 329 325 324 323 323 323 323 323 319 313 311 314 315 314
6 9 16 30 44 50 51 50 44 43 48 49 48 42 33 27 22 17 15 13 11 10 8 8 7 6 6 4 3 2 1 1 0 359 359 358 358 358 358 357 357 357 356 356 355 354 353 350 349 348 347 346 345 345 343 342 341 342 342 341 340 339 339 337 336 337 339 337 336 340 338 328 324 328 330 327 325 324 325 326 325 323 317 313 316 318 318 318
19 27 39 49 54 54 55 54 47 48 53 53 44 35 28 23 19 17 15 13 13 12 10 10 9 8 7 5 4 3 3 2 1 0 0 360 360 360 359 359 359 358 357 356 355 354 353 352 350 349 348 347 347 346 344 344 344 344 343 343 341 340 340 340 337 338 339 338 338 343 341 331 327 330 330 328 327 326 327 328 327 324 320 319 321 321 320 320
38 46 53 56 56 58 60 56 52 54 55 46 35 30 25 22 20 18 16 15 15 13 13 12 11 9 7 6 5 5 4 3 3 2 2 2 2 1 1 0 359 359 358 357 356 355 353 353 352 351 350 349 349 348 346 345 345 345 345 344 343 341 342 341 340 340 340 339 339 343 343 334 328 330 331 329 329 328 328 329 330 327 323 323 323 322 321 320
56 61 60 61 62 63 63 59 58 57 48 36 32 28 24 22 20 19 18 17 16 15 15 13 11 10 9 8 7 6 5 5 5 5 4 4 4 3 2 2 0 359 359 357 357 356 355 354 354 353 352 351 351 350 349 347 346 346 346 345 344 343 343 342 341 343 342 338 338 342 343 336 330 332 334 331 329 329 329 332 333 328 324 324 323 321 320 320
66 66 64 66 67 66 65 62 57 48 39 34 30 27 25 23 21 21 20 19 18 17 16 14 12 11 10 8 8 7 7 7 7 7 6 6 6 4 4 3 2 0 360 359 358 357 356 355 355 355 354 353 353 353 351 348 347 347 347 348 346 344 344 343 343 346 344 338 337 342 344 338 332 333 333 330 329 330 331 334 333 328 325 324 323 322 321 321
70 70 70 70 69 67 65 57 45 39 36 32 29 27 26 24 23 22 21 20 19 18 16 14 13 11 9 8 9 9 9 9 8 8 8 7 6 5 4 3 2 1 0 360 359 358 357 356 356 356 356 355 354 354 352 350 348 348 349 350 348 345 345 344 344 345 344 339 337 341 346 340 333 332 332 330 331 332 333 334 332 328 325 324 324 323 323 322
74 75 73 70 68 66 59 45 40 38 35 32 30 28 26 25 24 23 22 21 19 18 17 15 12 10 9 9 10 10 10 9 9 9 8 7 6 5 4 3 3 2 1 1 0 359 358 357 356 356 356 356 355 355 354 352 351 351 349 350 349 347 346 345 344 344 344 341 338 339 344 342 335 333 334 333 333 333 334 335 332 328 326 326 326 326 325 325
77 77 73 69 66 61 49 40 39 37 34 33 31 28 27 26 25 24 23 21 19 19 17 14 12 10 11 11 10 10 10 10 9 8 7 6 5 5 4 3 3 2 1 1 1 360 359 358 356 356 356 356 356 356 355 354 354 352 350 349 349 348 346 344 344 345 345 345 341 338 341 344 339 336 335 335 334 334 335 336 333 329 330 329 328 328 327 327
79 76 72 69 62 52 43 40 39 38 35 33 31 28 28 26 25 24 22 20 20 19 17 14 12 12 12 11 10 10 10 9 8 7 6 6 5 5 4 3 3 2 1 1 1 1 360 359 358 356 356 357 356 356 356 355 354 352 351 350 350 349 346 344 344 346 345 346 345 341 340 343 343 340 337 336 335 334 336 337 335 333 333 331 330 329 328 328
79 73 69 65 57 48 42 41 40 38 34 32 31 29 28 27 25 23 21 21 21 18 16 14 13 13 13 12 11 10 9 8 7 6 6 6 5 5 4 3 3 2 2 2 1 1 0 360 359 358 357 357 357 357 356 354 353 353 352 351 350 349 347 344 345 346 345 345 347 345 342 343 344 343 339 337 335 335 337 339 338 337 335 334 332 331 330 330
77 70 64 60 54 47 43 41 40 37 33 32 31 30 28 27 24 22 21 21 20 17 15 14 14 14 13 12 12 10 9 8 7 6 6 6 5 5 4 4 3 3 2 2 1 1 1 0 360 359 357 358 357 356 356 355 354 353 352 351 350 348 347 346 346 347 346 345 346 347 346 346 346 345 341 337 335 335 338 342 342 341 339 337 335 333 332 331
72 67 61 57 53 48 44 41 38 35 33 32 31 29 28 25 23 22 22 21 19 16 15 15 15 14 13 13 11 9 8 7 7 6 6 6 5 5 4 4 4 3 3 2 2 1 1 0 0 359 358 358 357 356 356 356 355 354 352 351 350 350 349 347 347 348 347 346 346 347 349 348 347 345 342 339 336 336 340 344 345 344 340 338 336 334 332 331
68 66 63 58 52 47 43 39 36 35 34 32 30 29 27 24 22 21 21 20 17 15 14 15 15 14 13 12 10 9 8 7 7 6 6 6 6 6 5 4 4 3 3 3 2 2 1 0 0 360 358 357 357 357 357 356 355 354 352 351 351 352 350 347 348 349 348 347 348 348 349 349 347 345 344 341 338 339 341 343 344 344 340 337 336 336 334 332
69 68 65 57 49 44 41 37 35 35 33 31 30 27 25 23 22 21 20 18 15 14 14 14 14 13 12 10 9 8 7 7 7 6 6 6 6 6 5 5 4 4 3 3 2 2 1 1 0 360 359 358 357 357 357 357 355 353 353 352 352 353 351 348 349 350 349 349 350 350 349 349 348 346 347 344 340 339 341 342 343 344 342 339 339 338 337 334
70 69 61 53 47 42 39 36 34 34 32 30 28 26 24 23 22 21 19 16 15 14 13 13 13 12 10 9 9 8 7 7 6 6 7 7 7 6 6 5 5 4 4 3 3 2 1 1 0 360 359 358 358 358 357 357 355 354 354 353 353 353 353 351 351 352 351 350 351 351 350 350 348 347 348 347 342 340 341 343 343 344 344 342 341 340 339 336